Weslaco, TX

9:33 AM CST on February 23, 2018 (GMT -0600)
Weslaco

Weather History for KT65 - November, 2012

Change the Weather History Date:

Monday, November 26, 2012

  Actual Average (KMFE) Record (KMFE)
Temperature  
Mean Temperature 75 °F -  
Max Temperature 86 °F 74 °F 92 °F (1965)
Min Temperature 64 °F 55 °F 33 °F (1974)
Cooling Degree Days 10    
Growing Degree Days 25 (Base 50)    
Moisture  
Dew Point 62 °F    
Average Humidity 63    
Maximum Humidity 88    
Minimum Humidity 40    
Precipitation  
Precipitation 0.00 in - - ()
Sea Level Pressure  
Sea Level Pressure 30.00 in    
Wind  
Wind Speed 11 mph (South)    
Max Wind Speed 21 mph    
Max Gust Speed 29 mph    
Visibility 10 miles    
Events      
Averages and records for this station are not official NWS values.
T = Trace of Precipitation, MM = Missing Value Source: NWS Daily Summary

Daily Weather History Graph

Daily Weather History Graph

Search for Another Location

Airport or City:

Trip Planner

Search our weather history database for the weather conditions in past years. The results will help you decide how hot, cold, wet, or windy it might be!

Date:

Astronomy

Nov. 26, 2012 Rise Set
Actual Time 6:58 AM CST 5:39 PM CST
Civil Twilight 6:34 AM CST 6:04 PM CST
Nautical Twilight 6:05 AM CST 6:32 PM CST
Astronomical Twilight 5:37 AM CST 7:00 PM CST
Moon 4:28 PM CST (11/26) 5:16 AM CST (11/26)
Length of Visible Light 11h 30m
Length of Day
10h 40m
Waxing Gibbous, 97% of the Moon is Illuminated
Nov 26
Waxing Gibbous
Nov 28
Full
Dec 6
Last Quarter
Dec 13
New
Dec 19
First Quarter

Hourly Weather History & Observations

Time (CST) Temp. Heat Index Dew Point Humidity Pressure Visibility Wind Dir Wind Speed Gust Speed Precip Events Conditions
7:15 AM 64.4 °F - 60.8 °F 88% 29.96 in 10.0 mi SSE 8.1 mph - N/A   Unknown
7:35 AM 66.2 °F - 62.6 °F 88% 29.96 in 10.0 mi SSE 6.9 mph - N/A   Unknown
7:55 AM 68.0 °F - 62.6 °F 83% 29.97 in 10.0 mi South 8.1 mph - N/A   Unknown
8:15 AM 68.0 °F - 62.6 °F 83% 29.98 in 10.0 mi South 8.1 mph - N/A   Unknown
8:35 AM 69.8 °F - 62.6 °F 78% 29.98 in 10.0 mi South 10.4 mph - N/A   Unknown
8:55 AM 69.8 °F - 62.6 °F 78% 29.99 in 10.0 mi South 11.5 mph - N/A   Unknown
9:15 AM 71.6 °F - 62.6 °F 73% 30.00 in 10.0 mi South 12.7 mph 21.9 mph N/A   Unknown
9:35 AM 73.4 °F - 62.6 °F 69% 30.00 in 10.0 mi South 15.0 mph - N/A   Unknown
9:55 AM 77.0 °F - 62.6 °F 61% 30.01 in 10.0 mi South 17.3 mph 21.9 mph N/A   Unknown
10:15 AM 77.0 °F - 62.6 °F 61% 30.01 in 10.0 mi South 16.1 mph 21.9 mph N/A   Unknown
10:35 AM 78.8 °F - 62.6 °F 57% 30.01 in 10.0 mi South 18.4 mph 24.2 mph N/A   Unknown
10:55 AM 78.8 °F - 60.8 °F 54% 30.01 in 5.0 mi South 20.7 mph 28.8 mph N/A   Haze
11:15 AM 80.6 °F 81.5 °F 60.8 °F 51% 30.00 in 10.0 mi South 18.4 mph 23.0 mph N/A   Unknown
11:35 AM 80.6 °F 81.5 °F 60.8 °F 51% 30.00 in 10.0 mi South 16.1 mph 25.3 mph N/A   Unknown
11:55 AM 82.4 °F 82.9 °F 60.8 °F 48% 29.98 in 10.0 mi South 17.3 mph 27.6 mph N/A   Unknown
12:15 PM 82.4 °F 82.9 °F 60.8 °F 48% 29.97 in 10.0 mi South 16.1 mph 27.6 mph N/A   Unknown
12:35 PM 84.2 °F 84.4 °F 60.8 °F 45% 29.96 in 10.0 mi South 16.1 mph 27.6 mph N/A   Unknown
12:55 PM 84.2 °F 83.8 °F 59.0 °F 42% 29.95 in 7.0 mi SSE 19.6 mph 24.2 mph N/A   Unknown
1:15 PM 86.0 °F 85.4 °F 59.0 °F 40% 29.94 in 10.0 mi South 19.6 mph 27.6 mph N/A   Unknown
1:35 PM 86.0 °F 85.4 °F 59.0 °F 40% 29.93 in 10.0 mi SSE 17.3 mph 24.2 mph N/A   Unknown
1:55 PM 84.2 °F 84.4 °F 60.8 °F 45% 29.93 in 10.0 mi SSE 16.1 mph 24.2 mph N/A   Unknown
2:15 PM 84.2 °F 84.4 °F 60.8 °F 45% 29.92 in 10.0 mi SSE 15.0 mph 21.9 mph N/A   Unknown
2:35 PM 84.2 °F 84.4 °F 60.8 °F 45% 29.92 in 10.0 mi South 15.0 mph 24.2 mph N/A   Unknown
2:55 PM 82.4 °F 82.9 °F 60.8 °F 48% 29.92 in 10.0 mi SSE 13.8 mph 23.0 mph N/A   Unknown
3:15 PM 82.4 °F 82.9 °F 60.8 °F 48% 29.92 in 10.0 mi SSE 17.3 mph 23.0 mph N/A   Unknown
3:35 PM 80.6 °F 81.5 °F 60.8 °F 51% 29.93 in 10.0 mi SSE 18.4 mph 24.2 mph N/A   Unknown
3:55 PM 78.8 °F - 60.8 °F 54% 29.93 in 10.0 mi SSE 16.1 mph 24.2 mph N/A   Unknown
4:15 PM 80.6 °F 81.8 °F 62.6 °F 54% 29.93 in 10.0 mi South 17.3 mph 21.9 mph N/A   Unknown
4:35 PM 78.8 °F - 62.6 °F 57% 29.94 in 10.0 mi SSE 15.0 mph 21.9 mph N/A   Unknown
4:55 PM 78.8 °F - 62.6 °F 57% 29.95 in 10.0 mi SSE 13.8 mph 19.6 mph N/A   Unknown
5:15 PM 77.0 °F - 62.6 °F 61% 29.97 in 10.0 mi South 10.4 mph - N/A   Unknown
5:35 PM 77.0 °F - 62.6 °F 61% 29.98 in 10.0 mi South 8.1 mph - N/A   Unknown
5:55 PM 77.0 °F - 62.6 °F 61% 29.98 in 10.0 mi SSE 6.9 mph - N/A   Unknown
6:15 PM 75.2 °F - 62.6 °F 65% 29.98 in 10.0 mi South 6.9 mph - N/A   Unknown
6:35 PM 73.4 °F - 62.6 °F 69% 29.99 in 10.0 mi South 5.8 mph - N/A   Unknown
6:55 PM 73.4 °F - 62.6 °F 69% 30.00 in 10.0 mi South 6.9 mph - N/A   Unknown
7:15 PM 73.4 °F - 62.6 °F 69% 30.01 in 10.0 mi SSE 6.9 mph - N/A   Unknown
7:35 PM 73.4 °F - 62.6 °F 69% 30.01 in 10.0 mi SSE 6.9 mph - N/A   Unknown
7:55 PM 73.4 °F - 62.6 °F 69% 30.03 in 10.0 mi Calm Calm - N/A   Unknown
8:15 PM 73.4 °F - 62.6 °F 69% 30.05 in 10.0 mi Calm Calm - N/A   Unknown
8:35 PM 73.4 °F - 64.4 °F 73% 30.06 in 10.0 mi SW 3.5 mph - N/A   Unknown
8:55 PM 73.4 °F - 64.4 °F 73% 30.08 in 10.0 mi SW 4.6 mph - N/A   Unknown
9:15 PM 73.4 °F - 64.4 °F 73% 30.08 in 10.0 mi SSW 3.5 mph - N/A   Unknown
9:35 PM 73.4 °F - 64.4 °F 73% 30.08 in 10.0 mi South 4.6 mph - N/A   Unknown
9:55 PM 71.6 °F - 64.4 °F 78% 30.09 in 10.0 mi Calm Calm - N/A   Unknown
10:15 PM 71.6 °F - 64.4 °F 78% 30.09 in 10.0 mi Calm Calm - N/A   Unknown
10:35 PM 71.6 °F - 64.4 °F 78% 30.08 in 10.0 mi South 4.6 mph - N/A   Unknown
10:55 PM 71.6 °F - 64.4 °F 78% 30.07 in 10.0 mi Calm Calm - N/A   Unknown
11:15 PM 71.6 °F - 64.4 °F 78% 30.09 in 10.0 mi WSW 5.8 mph - N/A   Unknown
11:35 PM 71.6 °F - 62.6 °F 73% 30.09 in 10.0 mi Calm Calm - N/A   Unknown
11:55 PM 71.6 °F - 64.4 °F 78% 30.10 in 10.0 mi Calm Calm - N/A   Unknown